STARLINK-32558 (62169 NORAD) Tracking and Keplerian Element Data

This shows tracking and keplerian element data for the satellite.

Feedback or suggestion? Click here.




ElementValue
Catalog62169
NameSTARLINK-32558
Epoch Orbit567
Epoch Day34.83335648
Epoch Year2025
RAAN90.3751
Inclination69.9995
Eccentricity0.0003461
Argument of Perigee275.3026
Mean Anonmoly86.9815
Mean Motion15.15593858
Decay Rate-0.0141639
L11 62169U 24225G 25034.83335648 -.01416390 00000+0 -81067-1 0 9991
L22 62169 69.9995 90.3751 0003461 275.3026 86.9815 15.15593858 5672



Live tracking and technical data element details for STARLINK-32558 (NORAD 62169). STARLINK-32558 can be tracked NOW for your location showing map with azimuth and elevation plus other details from your city location.







IsCatalogInMostPopularTable: catalog: 62169, numindb: 25
Update: records affected: 1



GetName: 62169 STARLINK-32558

Hit Count: updated at: Mon, 19 May 2025 01:48:10 GMT